Total_Precipitation_Accumulation
0.06 0.07 0.11 0.13 0.19 0.24 0.24 0.32 0.43 0.41 0.34 0.43 0.64 0.92 1.04 1.02 1.11 1.38 1.52 1.59 1.58 1.67 2.01 2.51 3.11 3.77 4.59 5.75 6.43 6.58 6.41 5.78 5.27 4.87 4.63 4.37 4.17 3.87 3.33 2.95 2.76 2.67 2.53 2.56
0.07 0.09 0.10 0.10 0.11 0.15 0.18 0.27 0.34 0.32 0.27 0.30 0.60 1.02 1.12 1.13 1.22 1.29 1.40 1.46 1.35 1.52 1.94 2.56 3.26 4.01 4.72 5.28 5.64 5.78 5.46 4.73 4.27 4.06 4.06 3.80 3.59 3.26 3.06 2.83 2.87 2.50 2.36 2.47
0.09 0.10 0.07 0.07 0.10 0.13 0.19 0.25 0.30 0.36 0.31 0.33 0.62 1.29 1.44 1.31 1.28 1.29 1.24 1.21 1.28 1.52 2.10 2.91 3.67 4.40 4.71 4.75 4.54 4.25 4.12 3.78 3.73 3.74 3.58 3.35 3.30 3.05 2.91 2.73 2.70 2.38 2.10 2.13
0.08 0.09 0.07 0.08 0.11 0.12 0.19 0.21 0.20 0.25 0.35 0.59 0.73 1.43 1.52 1.44 1.44 1.38 1.43 1.38 1.42 1.71 2.27 2.96 3.46 3.68 3.81 3.78 3.52 3.33 3.30 3.28 3.28 3.20 3.12 2.85 2.74 2.72 2.58 2.52 2.60 2.49 2.17 2.11
0.10 0.10 0.10 0.09 0.10 0.10 0.14 0.14 0.18 0.26 0.42 0.67 0.80 1.16 1.51 1.43 1.59 1.28 1.20 1.29 1.32 1.58 1.90 2.05 2.24 2.38 2.49 2.50 2.69 2.77 2.93 3.13 3.06 3.02 3.06 3.03 2.72 2.67 2.64 2.64 2.81 2.74 2.49 2.24
0.10 0.09 0.09 0.09 0.09 0.10 0.12 0.14 0.24 0.39 0.68 1.21 1.09 1.21 1.57 1.51 1.42 1.14 1.04 1.08 1.20 1.31 1.35 1.42 1.50 1.61 1.80 1.82 2.07 2.30 2.45 2.64 2.83 2.88 2.75 2.69 2.66 2.73 2.79 2.79 2.68 2.50 2.41 2.32
0.18 0.14 0.11 0.11 0.11 0.13 0.13 0.24 0.63 1.08 1.47 1.51 0.94 1.07 1.49 1.36 1.02 0.79 0.80 0.88 0.88 1.02 1.21 1.45 1.44 1.53 1.69 1.60 1.76 2.05 2.10 2.12 2.28 2.31 2.31 2.41 2.56 2.60 2.45 2.38 2.38 2.24 2.01 2.06
0.24 0.23 0.16 0.12 0.14 0.15 0.15 0.26 0.54 0.86 0.94 1.05 1.06 1.57 1.73 1.10 0.78 0.64 0.70 0.74 0.81 1.00 1.18 1.35 1.15 1.22 1.36 1.38 1.55 1.74 1.83 1.88 1.96 2.08 2.21 2.19 2.30 2.25 2.15 2.27 2.15 2.03 1.77 1.68
0.14 0.17 0.15 0.14 0.16 0.16 0.17 0.20 0.26 0.36 0.48 0.90 1.34 1.65 1.60 1.08 0.92 0.80 0.80 0.85 0.86 0.86 0.99 1.09 1.00 0.97 1.08 1.24 1.38 1.52 1.61 1.72 1.75 1.91 2.00 1.98 2.02 2.08 2.15 2.18 2.08 1.88 1.91 1.76
0.09 0.12 0.15 0.15 0.17 0.18 0.18 0.23 0.28 0.39 0.56 0.86 1.29 1.78 2.03 1.53 1.01 0.97 0.93 0.93 0.95 0.96 1.02 1.06 1.06 1.02 1.11 1.15 1.41 1.54 1.51 1.63 1.69 1.84 1.87 1.68 1.81 1.93 2.13 2.08 1.98 1.89 1.89 1.88
0.08 0.12 0.17 0.19 0.19 0.23 0.24 0.22 0.27 0.36 0.39 0.64 1.20 1.50 1.22 1.15 0.96 1.05 1.05 0.97 0.93 0.92 1.05 1.02 1.09 1.03 0.98 0.97 1.22 1.37 1.51 1.62 1.69 1.83 1.93 1.89 1.87 1.80 1.93 1.97 1.94 1.95 1.95 1.96
0.08 0.14 0.20 0.20 0.19 0.21 0.24 0.26 0.29 0.36 0.41 0.45 0.70 0.98 0.83 1.02 1.00 1.01 1.11 1.09 0.99 0.79 0.82 0.97 1.10 1.09 0.93 0.88 1.03 1.23 1.39 1.54 1.62 1.74 1.88 1.95 2.11 2.03 1.96 1.96 2.01 2.08 2.18 2.29
0.08 0.13 0.24 0.32 0.35 0.28 0.22 0.21 0.24 0.29 0.33 0.42 0.67 0.89 0.80 0.86 0.89 0.87 1.05 1.17 1.05 0.91 0.86 0.97 1.14 1.06 1.03 0.99 1.04 1.15 1.31 1.54 1.72 1.85 1.99 2.13 2.21 2.09 2.01 2.15 2.23 2.26 2.42 2.58
0.07 0.08 0.15 0.32 0.37 0.39 0.30 0.22 0.23 0.23 0.28 0.37 0.49 0.74 0.80 0.88 0.87 0.95 1.02 1.08 1.13 1.06 0.97 1.05 1.11 1.11 1.18 1.29 1.34 1.42 1.67 1.73 1.75 2.00 2.30 2.40 2.38 2.26 2.20 2.32 2.43 2.44 2.51 2.66
0.07 0.07 0.09 0.13 0.19 0.24 0.27 0.24 0.20 0.18 0.18 0.28 0.43 0.60 0.75 0.93 1.02 1.08 1.04 1.01 0.94 0.91 0.91 0.90 0.97 1.07 1.17 1.31 1.39 1.55 1.61 1.81 1.93 2.21 2.38 2.41 2.50 2.49 2.51 2.62 2.64 2.56 2.58 2.62
0.12 0.10 0.09 0.11 0.13 0.18 0.21 0.23 0.19 0.16 0.15 0.21 0.38 0.69 0.76 0.89 1.01 1.07 1.02 0.98 0.96 0.92 0.94 1.03 1.08 1.16 1.29 1.32 1.41 1.54 1.65 1.88 2.16 2.43 2.71 2.75 2.80 2.77 2.82 2.94 2.99 2.88 2.88 3.01
0.17 0.17 0.18 0.19 0.19 0.19 0.24 0.24 0.22 0.23 0.22 0.28 0.45 0.66 0.77 0.88 1.00 1.18 1.16 1.05 1.03 1.06 1.09 1.19 1.30 1.31 1.36 1.44 1.54 1.72 1.88 2.12 2.33 2.53 2.79 2.98 3.05 3.06 3.11 3.16 3.17 3.11 3.22 3.41
0.23 0.26 0.28 0.26 0.30 0.37 0.31 0.29 0.29 0.34 0.36 0.41 0.56 0.67 0.91 1.11 1.22 1.48 1.59 1.37 1.23 1.15 1.15 1.25 1.45 1.57 1.58 1.62 1.76 2.03 2.21 2.46 2.69 2.83 2.94 3.05 3.10 3.13 3.18 3.24 3.14 3.19 3.34 3.38
0.25 0.32 0.37 0.35 0.39 0.39 0.42 0.45 0.49 0.57 0.72 0.70 0.83 0.98 1.17 1.30 1.34 1.51 1.40 1.26 1.19 1.21 1.34 1.45 1.60 1.68 1.79 1.87 2.01 2.16 2.35 2.59 2.83 2.98 2.95 2.93 3.03 3.14 3.19 3.21 3.21 3.28 3.34 3.24
0.36 0.37 0.50 0.47 0.53 0.59 0.62 0.63 0.62 0.73 1.32 1.31 1.31 1.30 1.37 1.45 1.74 1.71 1.39 1.24 1.23 1.28 1.36 1.48 1.61 1.61 1.73 1.90 1.93 2.02 2.28 2.57 2.74 2.90 2.95 2.96 3.07 3.15 3.19 3.29 3.36 3.31 3.29 3.21
0.59 0.63 0.62 0.65 0.76 0.77 0.67 0.63 0.70 1.21 1.68 1.52 1.51 1.50 1.49 1.69 1.77 1.65 1.47 1.44 1.38 1.40 1.50 1.53 1.59 1.59 1.59 1.75 1.87 2.03 2.19 2.36 2.56 2.77 2.97 3.19 3.34 3.39 3.41 3.46 3.36 3.29 3.21 3.22
0.76 0.84 0.86 0.88 1.17 1.32 0.89 0.75 1.10 1.50 1.34 1.49 1.65 1.61 1.61 1.64 1.56 1.52 1.50 1.52 1.49 1.49 1.55 1.56 1.59 1.70 1.78 1.92 2.03 2.09 2.04 2.17 2.41 2.51 2.71 2.89 3.09 3.23 3.24 3.29 3.22 3.27 3.20 3.07
1.02 1.05 1.14 1.29 1.46 1.30 1.08 1.11 1.30 1.36 1.44 1.51 1.68 1.78 1.71 1.79 1.74 1.56 1.57 1.53 1.66 1.78 1.80 1.75 1.65 1.73 1.92 2.02 2.13 2.20 2.10 2.05 2.13 2.28 2.48 2.71 2.90 3.17 3.31 3.34 3.28 3.17 3.08 2.88
1.28 1.04 1.20 1.57 1.60 1.47 1.39 1.35 1.36 1.39 1.47 1.53 1.66 1.80 1.88 1.81 1.68 1.64 1.60 1.50 1.46 1.55 1.61 1.75 1.71 1.76 2.12 2.10 2.04 2.08 2.11 2.10 2.16 2.28 2.39 2.56 2.72 2.92 3.19 3.26 3.19 3.02 2.75 2.58
1.47 1.49 1.53 1.82 1.87 1.63 1.56 1.49 1.55 1.55 1.55 1.55 1.61 1.72 1.82 1.72 1.63 1.65 1.73 1.60 1.53 1.57 1.57 1.58 1.66 1.69 1.81 1.91 1.93 1.93 2.00 2.08 2.12 2.17 2.21 2.26 2.47 2.67 2.86 2.88 2.79 2.64 2.49 2.55
1.35 1.67 1.95 2.13 1.91 1.89 1.89 1.72 1.72 1.82 1.84 1.89 1.87 2.00 1.97 1.75 1.71 1.62 1.58 1.52 1.42 1.40 1.56 1.60 1.55 1.55 1.63 1.69 1.82 1.90 2.05 2.19 2.25 2.21 2.17 2.10 2.06 2.18 2.47 2.73 2.79 2.70 2.47 2.47